Powrót do katalogu

IRIDIUM 33 DEB

AktywnyPO
NORAD 33773·DEBRIS·🇺🇸 United States

Wystrzelony Sep 14, 1997 z Baikonur Cosmodrome

Loading…

Następne Przeloty (najbliższe 24 godziny)

TLE

ŚwieżeSource: Space-Track

Epoka: Sep 14, 2026, 09:23 UTC

1 33773U 97051L   26257.39159594  .00000529  00000-0  14976-3 0  9998
2 33773  86.3995 303.7592 0009656 331.4357  28.6314 14.43761757923245

Śledź IRIDIUM 33 DEB w czasie rzeczywistym z AllMySat

Download on the App Store